LHA280 LGSK-LGMK

Flight info

Callsign LHA280
Flight time N/A
Altitude 25000
Route EVIKO W58 SKP UN137 AGAPU
Aircraft A321/M-SDE1E2FGIJ1RWYZ/S

Departure

Time 2026-04-14 13:55
Airport Skiathos Island National Airport (LGSK)

Arrival

Time N/A
Airport Mykonos Island National Airport (LGMK)
Time Latitude Longitude Altitude Speed Heading
2026-04-14 13:27 39.17822 23.50192 9 ft 0 kts 315°
2026-04-14 13:48 39.17812 23.50205 9 ft 2 kts 322°
2026-04-14 13:48 39.17799 23.50215 9 ft 2 kts 338°
2026-04-14 13:49 39.17784 23.50221 9 ft 2 kts 349°
2026-04-14 13:49 39.17769 23.50225 9 ft 2 kts 338°
2026-04-14 13:49 39.17758 23.50238 9 ft 2 kts 295°
2026-04-14 13:49 39.17757 23.50257 9 ft 2 kts 243°
2026-04-14 13:50 39.17768 23.50269 9 ft 2 kts 193°
2026-04-14 13:50 39.17775 23.50271 9 ft 0 kts 193°
2026-04-14 13:52 39.17748 23.50265 9 ft 7 kts 186°
2026-04-14 13:52 39.17693 23.50306 9 ft 13 kts 148°
2026-04-14 13:52 39.17531 23.50277 9 ft 28 kts 197°
2026-04-14 13:52 39.17348 23.50196 9 ft 27 kts 200°
2026-04-14 13:53 39.17171 23.50119 9 ft 20 kts 199°
2026-04-14 13:53 39.17070 23.50090 9 ft 14 kts 177°
2026-04-14 13:53 39.17026 23.50048 9 ft 11 kts 301°
2026-04-14 13:53 39.17050 23.50047 9 ft 2 kts 54°
2026-04-14 13:54 39.17080 23.50076 9 ft 0 kts 20°
2026-04-14 13:55 39.17390 23.50214 9 ft 89 kts 19°
2026-04-14 13:55 39.18224 23.50589 13 ft 159 kts 19°
2026-04-14 13:55 39.19224 23.51085 839 ft 152 kts 24°
2026-04-14 13:55 39.20200 23.51543 1607 ft 154 kts 20°
2026-04-14 13:56 39.21233 23.51967 2237 ft 162 kts 25°
2026-04-14 13:56 39.22076 23.52919 2697 ft 175 kts 70°
2026-04-14 13:56 39.22082 23.54533 3171 ft 192 kts 114°
2026-04-14 13:56 39.21306 23.55978 3764 ft 208 kts 130°
2026-04-14 13:57 39.20392 23.57484 4513 ft 219 kts 129°
2026-04-14 13:57 39.19485 23.59064 5355 ft 224 kts 129°
2026-04-14 13:57 39.18568 23.60694 6198 ft 229 kts 129°
2026-04-14 13:57 39.17599 23.62307 7000 ft 233 kts 140°
2026-04-14 13:58 39.16201 23.63336 7568 ft 241 kts 170°
2026-04-14 13:58 39.14501 23.63343 8112 ft 252 kts 197°
2026-04-14 13:58 39.12956 23.62228 8670 ft 265 kts 226°
2026-04-14 13:58 39.12036 23.60172 9504 ft 271 kts 255°
2026-04-14 13:59 39.12058 23.57805 10415 ft 277 kts 283°
2026-04-14 13:59 39.13072 23.55620 11030 ft 298 kts 310°
2026-04-14 13:59 39.14637 23.53787 11491 ft 316 kts 315°
2026-04-14 13:59 39.16351 23.51877 11897 ft 334 kts 316°
2026-04-14 14:00 39.18138 23.49872 12295 ft 350 kts 316°
2026-04-14 14:00 39.19849 23.47615 12788 ft 357 kts 302°
2026-04-14 14:00 39.20898 23.44723 13493 ft 355 kts 283°
2026-04-14 14:00 39.21137 23.41624 14216 ft 354 kts 265°
2026-04-14 14:01 39.20567 23.38533 14919 ft 355 kts 247°
2026-04-14 14:01 39.19245 23.35857 15575 ft 360 kts 229°
2026-04-14 14:01 39.17283 23.33861 16244 ft 365 kts 210°
2026-04-14 14:01 39.14881 23.32796 16885 ft 373 kts 192°
2026-04-14 14:02 39.12252 23.32852 17497 ft 384 kts 172°
2026-04-14 14:02 39.09775 23.34084 18071 ft 395 kts 151°
2026-04-14 14:02 39.07706 23.36492 18607 ft 407 kts 129°
2026-04-14 14:02 39.06459 23.39756 19122 ft 417 kts 107°
2026-04-14 14:03 39.06240 23.43520 19584 ft 426 kts 83°
2026-04-14 14:03 39.07143 23.47095 20165 ft 427 kts 60°
2026-04-14 14:03 39.08947 23.50089 20927 ft 422 kts 45°
2026-04-14 14:03 39.10957 23.52827 21630 ft 422 kts 44°
2026-04-14 14:04 39.12683 23.55855 22199 ft 428 kts 62°
2026-04-14 14:04 39.13458 23.59520 22789 ft 429 kts 86°
2026-04-14 14:04 39.13119 23.63278 23432 ft 423 kts 110°
2026-04-14 14:04 39.11909 23.66633 24073 ft 415 kts 127°
2026-04-14 14:05 39.10075 23.69479 24537 ft 411 kts 142°
2026-04-14 14:05 39.07828 23.71713 24879 ft 413 kts 151°
2026-04-14 14:05 39.05446 23.73838 25132 ft 417 kts 151°
2026-04-14 14:05 39.03083 23.75954 25136 ft 418 kts 151°
2026-04-14 14:06 39.00720 23.78110 25135 ft 419 kts 150°
2026-04-14 14:06 38.98338 23.80310 25138 ft 419 kts 150°
2026-04-14 14:06 38.95996 23.82497 25140 ft 419 kts 149°
2026-04-14 14:06 38.93639 23.84703 25136 ft 419 kts 149°
2026-04-14 14:07 38.91310 23.86891 25137 ft 419 kts 150°
2026-04-14 14:07 38.88965 23.89094 25139 ft 418 kts 149°
2026-04-14 14:07 38.86617 23.91298 25140 ft 419 kts 150°
2026-04-14 14:07 38.84246 23.93521 25142 ft 418 kts 150°
2026-04-14 14:08 38.81913 23.95709 25139 ft 418 kts 150°
2026-04-14 14:08 38.79572 23.97903 25138 ft 418 kts 150°
2026-04-14 14:08 38.77229 24.00097 25135 ft 418 kts 150°
2026-04-14 14:08 38.74892 24.02283 25138 ft 419 kts 150°
2026-04-14 14:09 38.72541 24.04483 25140 ft 419 kts 150°
2026-04-14 14:09 38.70173 24.06692 25141 ft 420 kts 150°
2026-04-14 14:09 38.67819 24.08890 25140 ft 418 kts 150°
2026-04-14 14:09 38.65498 24.11054 25139 ft 418 kts 150°
2026-04-14 14:10 38.63135 24.13254 25138 ft 418 kts 150°
2026-04-14 14:10 38.60793 24.15435 25140 ft 418 kts 150°
2026-04-14 14:10 38.58450 24.17613 25139 ft 418 kts 150°
2026-04-14 14:10 38.56097 24.19801 25141 ft 418 kts 150°
2026-04-14 14:11 38.53750 24.21982 25141 ft 417 kts 150°
2026-04-14 14:11 38.51424 24.24143 25135 ft 418 kts 150°
2026-04-14 14:11 38.49070 24.26326 25138 ft 418 kts 150°
2026-04-14 14:11 38.46701 24.28518 25139 ft 417 kts 150°
2026-04-14 14:12 38.44355 24.30688 25132 ft 418 kts 150°
2026-04-14 14:12 38.41968 24.32803 25136 ft 416 kts 153°
2026-04-14 14:12 38.39511 24.34730 25139 ft 416 kts 155°
2026-04-14 14:12 38.37032 24.36608 25135 ft 415 kts 155°